When you browse on this site, cookies collect data to enhance your experience and personalize the content and advertising you see.
Visit our Privacy Policy to learn more. By continuing to use the site, you agree to this use of cookies and data.
  • In Germany
  • List of Countries
  • For 7 days
  • Water Temperature
  • Satellite Maps
  • Weather Map
  • Weather Widgets
  • user-avatar
    Login

    Hourly Weather Vitebsk

    Today, 22 January, Tuesday

    Time Temperature Precipitation Wind Pressure Humidity
    00:00 -16°C° 0 mm 1 mps 747 mmHg 93%
    01:00 -17°C° 0 mm 1 mps 747 mmHg 94%
    02:00 -16°C° 0 mm 1 mps 748 mmHg 94%
    03:00 -17°C° 0 mm 1 mps 748 mmHg 95%
    04:00 -17°C° 0 mm 1 mps 748 mmHg 95%
    05:00 -18°C° 0 mm 1 mps 748 mmHg 96%
    06:00 -18°C° 0 mm 0 mps 748 mmHg 96%
    07:00 -19°C° 0 mm 0 mps 748 mmHg 97%
    08:00 -19°C° 0 mm 0 mps 748 mmHg 97%
    09:00 -17°C° 0 mm 0 mps 748 mmHg 94%
    10:00 -16°C° 0 mm 0 mps 749 mmHg 92%
    11:00 -14°C° 0 mm 0 mps 749 mmHg 89%
    12:00 -14°C° 0 mm 1 mps 749 mmHg 89%
    13:00 -13°C° 0 mm 1 mps 749 mmHg 89%
    14:00 -12°C° 0 mm 1 mps 748 mmHg 89%
    15:00 -13°C° 0 mm 1 mps 748 mmHg 91%
    16:00 -15°C° 0 mm 1 mps 748 mmHg 93%
    17:00 -16°C° 0 mm 1 mps 748 mmHg 94%
    18:00 -16°C° 0 mm 1 mps 748 mmHg 96%
    19:00 -16°C° 0 mm 1 mps 748 mmHg 97%
    20:00 -16°C° 0 mm 1 mps 748 mmHg 98%
    21:00 -15°C° 0 mm 1 mps 748 mmHg 98%
    22:00 -15°C° 0 mm 1 mps 748 mmHg 98%
    23:00 -14°C° 0 mm 1 mps 748 mmHg 97%

    Tomorrow, 23 January, Wednesday

    Time Temperature Precipitation Wind Pressure Humidity
    00:00 -13°C° 0 mm 1 mps 748 mmHg 97%
    01:00 -13°C° 0 mm 1 mps 748 mmHg 97%
    02:00 -12°C° 0 mm 1 mps 748 mmHg 97%
    03:00 -11°C° 0 mm 1 mps 748 mmHg 96%
    04:00 -13°C° 0 mm 2 mps 747 mmHg 96%
    05:00 -13°C° 0 mm 2 mps 747 mmHg 96%
    06:00 -13°C° 0 mm 2 mps 747 mmHg 96%
    07:00 -12°C° 0 mm 2 mps 747 mmHg 96%
    08:00 -12°C° 0 mm 2 mps 747 mmHg 96%
    09:00 -10°C° 0 mm 2 mps 747 mmHg 96%
    10:00 -10°C° 0 mm 2 mps 747 mmHg 95%
    11:00 -9°C° 0 mm 2 mps 747 mmHg 94%
    12:00 -9°C° 0 mm 2 mps 747 mmHg 94%
    13:00 -9°C° 0 mm 2 mps 747 mmHg 93%
    14:00 -9°C° 0 mm 2 mps 747 mmHg 92%
    15:00 -12°C° 0 mm 2 mps 746 mmHg 93%
    16:00 -13°C° 0 mm 2 mps 746 mmHg 94%
    17:00 -15°C° 0 mm 2 mps 746 mmHg 96%
    18:00 -15°C° 0 mm 2 mps 746 mmHg 96%
    19:00 -16°C° 0 mm 2 mps 746 mmHg 97%
    20:00 -16°C° 0 mm 2 mps 746 mmHg 97%
    21:00 -16°C° 0 mm 2 mps 746 mmHg 98%
    22:00 -16°C° 0 mm 2 mps 746 mmHg 98%
    23:00 -16°C° 0 mm 2 mps 746 mmHg 98%

    Day after tomorrow, 24 January, Thursday

    Time Temperature Precipitation Wind Pressure Humidity
    00:00 -17°C° 0 mm 2 mps 746 mmHg 98%
    01:00 -17°C° 0 mm 2 mps 746 mmHg 97%
    02:00 -17°C° 0 mm 2 mps 745 mmHg 97%
    03:00 -18°C° 0 mm 2 mps 745 mmHg 97%
    04:00 -18°C° 0 mm 2 mps 745 mmHg 96%
    05:00 -18°C° 0 mm 2 mps 745 mmHg 95%
    06:00 -18°C° 0 mm 2 mps 745 mmHg 95%
    07:00 -19°C° 0 mm 2 mps 746 mmHg 95%
    08:00 -19°C° 0 mm 2 mps 746 mmHg 94%
    09:00 -18°C° 0 mm 2 mps 746 mmHg 93%
    10:00 -16°C° 0 mm 2 mps 746 mmHg 91%
    11:00 -15°C° 0 mm 2 mps 746 mmHg 90%
    12:00 -14°C° 0 mm 2 mps 746 mmHg 90%
    13:00 -13°C° 0 mm 2 mps 746 mmHg 89%
    14:00 -12°C° 0 mm 2 mps 747 mmHg 89%
    15:00 -14°C° 0 mm 2 mps 747 mmHg 90%
    16:00 -15°C° 0 mm 2 mps 747 mmHg 91%
    17:00 -16°C° 0 mm 2 mps 747 mmHg 92%
    18:00 -16°C° 0 mm 2 mps 747 mmHg 92%
    19:00 -16°C° 0 mm 2 mps 748 mmHg 92%
    20:00 -17°C° 0 mm 2 mps 748 mmHg 92%
    21:00 -17°C° 0 mm 2 mps 748 mmHg 93%
    22:00 -16°C° 0 mm 2 mps 748 mmHg 94%
    23:00 -16°C° 0 mm 2 mps 749 mmHg 95%

    25 January, Friday

    Time Temperature Precipitation Wind Pressure Humidity
    00:00 -16°C° 0 mm 2 mps 749 mmHg 95%
    01:00 -16°C° 0 mm 2 mps 749 mmHg 96%
    02:00 -16°C° 0 mm 2 mps 749 mmHg 96%
    03:00 -16°C° 0 mm 2 mps 749 mmHg 97%
    04:00 -16°C° 0 mm 2 mps 749 mmHg 97%
    05:00 -16°C° 0 mm 2 mps 749 mmHg 97%
    06:00 -17°C° 0 mm 3 mps 749 mmHg 97%
    07:00 -17°C° 0 mm 3 mps 749 mmHg 96%
    08:00 -16°C° 0 mm 3 mps 749 mmHg 96%
    09:00 -16°C° 0 mm 3 mps 749 mmHg 95%
    10:00 -15°C° 0 mm 3 mps 750 mmHg 95%
    11:00 -14°C° 0 mm 3 mps 750 mmHg 94%
    12:00 -14°C° 0 mm 3 mps 749 mmHg 93%
    13:00 -15°C° 0 mm 4 mps 749 mmHg 93%
    14:00 -14°C° 0 mm 4 mps 749 mmHg 92%
    15:00 -15°C° 0 mm 4 mps 749 mmHg 93%
    16:00 -15°C° 0 mm 3 mps 749 mmHg 93%
    17:00 -16°C° 0 mm 3 mps 749 mmHg 94%
    18:00 -17°C° 0 mm 3 mps 749 mmHg 93%
    19:00 -18°C° 0 mm 3 mps 749 mmHg 92%
    20:00 -19°C° 0 mm 3 mps 749 mmHg 91%
    21:00 -21°C° 0 mm 3 mps 749 mmHg 91%
    22:00 -21°C° 0 mm 3 mps 749 mmHg 90%
    23:00 -22°C° 0 mm 3 mps 749 mmHg 90%

    26 January, Saturday

    Time Temperature Precipitation Wind Pressure Humidity
    00:00 -22°C° 0 mm 3 mps 749 mmHg 90%
    01:00 -22°C° 0 mm 3 mps 749 mmHg 90%
    02:00 -23°C° 0 mm 3 mps 749 mmHg 89%
    03:00 -23°C° 0 mm 3 mps 749 mmHg 89%
    04:00 -23°C° 0 mm 3 mps 749 mmHg 89%
    05:00 -23°C° 0 mm 3 mps 748 mmHg 88%
    06:00 -23°C° 0 mm 3 mps 748 mmHg 88%
    07:00 -23°C° 0 mm 3 mps 748 mmHg 87%
    08:00 -23°C° 0 mm 3 mps 748 mmHg 87%
    09:00 -22°C° 0 mm 3 mps 748 mmHg 86%
    10:00 -21°C° 0 mm 3 mps 748 mmHg 85%
    11:00 -20°C° 0 mm 4 mps 748 mmHg 85%
    12:00 -19°C° 0 mm 4 mps 748 mmHg 85%
    13:00 -18°C° 0 mm 4 mps 748 mmHg 85%
    14:00 -17°C° 0 mm 4 mps 748 mmHg 86%
    15:00 -18°C° 0 mm 4 mps 748 mmHg 87%
    16:00 -19°C° 0 mm 4 mps 748 mmHg 88%
    17:00 -19°C° 0 mm 4 mps 748 mmHg 89%
    18:00 -20°C° 0 mm 4 mps 748 mmHg 89%
    19:00 -20°C° 0 mm 4 mps 748 mmHg 89%
    20:00 -22°C° 0 mm 4 mps 748 mmHg 89%
    21:00 -22°C° 0 mm 4 mps 748 mmHg 89%
    22:00 -22°C° 0 mm 3 mps 748 mmHg 88%
    23:00 -22°C° 0 mm 3 mps 748 mmHg 88%

    27 January, Sunday

    Time Temperature Precipitation Wind Pressure Humidity
    00:00 -22°C° 0 mm 3 mps 748 mmHg 88%
    01:00 -23°C° 0 mm 3 mps 748 mmHg 88%
    02:00 -23°C° 0 mm 3 mps 748 mmHg 89%
    03:00 -23°C° 0 mm 3 mps 748 mmHg 89%
    04:00 -23°C° 0 mm 3 mps 748 mmHg 89%
    05:00 -23°C° 0 mm 3 mps 748 mmHg 90%
    06:00 -24°C° 0 mm 3 mps 748 mmHg 89%
    07:00 -24°C° 0 mm 3 mps 748 mmHg 89%
    08:00 -24°C° 0 mm 3 mps 748 mmHg 89%
    09:00 -23°C° 0 mm 3 mps 749 mmHg 87%
    10:00 -23°C° 0 mm 4 mps 749 mmHg 85%
    11:00 -22°C° 0 mm 4 mps 749 mmHg 83%
    12:00 -20°C° 0 mm 4 mps 749 mmHg 84%
    13:00 -19°C° 0 mm 4 mps 749 mmHg 84%
    14:00 -19°C° 0 mm 4 mps 749 mmHg 84%
    15:00 -20°C° 0 mm 4 mps 749 mmHg 86%
    16:00 -20°C° 0 mm 4 mps 749 mmHg 88%
    17:00 -21°C° 0 mm 3 mps 749 mmHg 89%
    18:00 -23°C° 0 mm 4 mps 749 mmHg 89%
    19:00 -23°C° 0 mm 4 mps 749 mmHg 89%
    20:00 -24°C° 0 mm 4 mps 750 mmHg 88%
    21:00 -23°C° 0 mm 3 mps 750 mmHg 88%
    22:00 -24°C° 0 mm 3 mps 750 mmHg 88%
    23:00 -25°C° 0 mm 3 mps 750 mmHg 88%
    Show more